When you browse on this site, cookies collect data to enhance your experience and personalize the content and advertising you see.
Visit our Privacy Policy to learn more. By continuing to use the site, you agree to this use of cookies and data.
  • In France
  • List of Countries
  • For 7 days
  • Water Temperature
  • Satellite Maps
  • Weather Map
  • Weather Widgets
  • user-avatar
    Login

    Hourly Weather Shusha

    Today, 21 April, Sunday

    Time Temperature Precipitation Wind Pressure Humidity
    00:00 -1°C° 0 mm 0 mps 657 mmHg 94%
    01:00 -2°C° 0 mm 0 mps 657 mmHg 94%
    02:00 -2°C° 0 mm 0 mps 657 mmHg 93%
    03:00 -2°C° 0 mm 0 mps 657 mmHg 93%
    04:00 -2°C° 0 mm 0 mps 657 mmHg 93%
    05:00 -1°C° 0 mm 0 mps 657 mmHg 92%
    06:00 0°C° 0 mm 1 mps 657 mmHg 91%
    07:00 +1°C° 0 mm 1 mps 657 mmHg 89%
    08:00 +1°C° 0 mm 2 mps 658 mmHg 87%
    09:00 +2°C° 0 mm 2 mps 658 mmHg 85%
    10:00 +2°C° 0.1 mm 2 mps 658 mmHg 85%
    11:00 +2°C° 0.1 mm 2 mps 657 mmHg 84%
    12:00 +2°C° 0.1 mm 3 mps 657 mmHg 84%
    13:00 +2°C° 0 mm 3 mps 657 mmHg 84%
    14:00 +2°C° 0 mm 3 mps 657 mmHg 83%
    15:00 +3°C° 0 mm 3 mps 657 mmHg 82%
    16:00 +2°C° 0.1 mm 3 mps 657 mmHg 85%
    17:00 +3°C° 0.1 mm 2 mps 657 mmHg 87%
    18:00 +2°C° 0.1 mm 2 mps 657 mmHg 90%
    19:00 +2°C° 0.4 mm 2 mps 657 mmHg 91%
    20:00 +2°C° 0.4 mm 2 mps 658 mmHg 93%
    21:00 +1°C° 0.4 mm 2 mps 658 mmHg 94%
    22:00 +1°C° 0.4 mm 2 mps 658 mmHg 95%
    23:00 +2°C° 0.4 mm 1 mps 658 mmHg 95%

    Tomorrow, 22 April, Monday

    Time Temperature Precipitation Wind Pressure Humidity
    00:00 +2°C° 0.4 mm 1 mps 658 mmHg 95%
    01:00 +1°C° 0.2 mm 1 mps 658 mmHg 95%
    02:00 +1°C° 0.2 mm 1 mps 658 mmHg 96%
    03:00 +1°C° 0.2 mm 1 mps 658 mmHg 96%
    04:00 +1°C° 0.1 mm 1 mps 658 mmHg 95%
    05:00 +1°C° 0.1 mm 1 mps 658 mmHg 94%
    06:00 +1°C° 0.1 mm 1 mps 658 mmHg 94%
    07:00 +1°C° 0.2 mm 1 mps 658 mmHg 90%
    08:00 +1°C° 0.2 mm 2 mps 658 mmHg 87%
    09:00 +2°C° 0.2 mm 2 mps 658 mmHg 84%
    10:00 +2°C° 0.3 mm 2 mps 657 mmHg 82%
    11:00 +1°C° 0.3 mm 3 mps 657 mmHg 81%
    12:00 +2°C° 0.3 mm 3 mps 657 mmHg 79%
    13:00 +2°C° 0.6 mm 3 mps 657 mmHg 80%
    14:00 +3°C° 0.6 mm 2 mps 657 mmHg 80%
    15:00 +3°C° 0.6 mm 2 mps 657 mmHg 81%
    16:00 +2°C° 1.1 mm 2 mps 657 mmHg 84%
    17:00 +3°C° 1.1 mm 1 mps 657 mmHg 88%
    18:00 +2°C° 1.1 mm 1 mps 657 mmHg 91%
    19:00 +2°C° 1.1 mm 1 mps 658 mmHg 92%
    20:00 +2°C° 1.1 mm 1 mps 658 mmHg 93%
    21:00 +2°C° 1.1 mm 1 mps 659 mmHg 93%
    22:00 +1°C° 0.8 mm 1 mps 659 mmHg 93%
    23:00 +1°C° 0.8 mm 1 mps 659 mmHg 92%

    Day after tomorrow, 23 April, Tuesday

    Time Temperature Precipitation Wind Pressure Humidity
    00:00 +1°C° 0.8 mm 1 mps 660 mmHg 91%
    01:00 +1°C° 0.5 mm 1 mps 660 mmHg 91%
    02:00 +1°C° 0.5 mm 1 mps 660 mmHg 90%
    03:00 +1°C° 0.5 mm 1 mps 660 mmHg 89%
    04:00 +1°C° 0.4 mm 1 mps 660 mmHg 89%
    05:00 0°C° 0.4 mm 0 mps 661 mmHg 88%
    06:00 0°C° 0.4 mm 0 mps 661 mmHg 88%
    07:00 +2°C° 0.4 mm 1 mps 661 mmHg 87%
    08:00 +3°C° 0.4 mm 1 mps 662 mmHg 85%
    09:00 +2°C° 0.4 mm 2 mps 662 mmHg 84%
    10:00 +3°C° 0.3 mm 2 mps 662 mmHg 83%
    11:00 +3°C° 0.3 mm 3 mps 662 mmHg 81%
    12:00 +3°C° 0.3 mm 3 mps 663 mmHg 80%
    13:00 +4°C° 0.1 mm 3 mps 662 mmHg 79%
    14:00 +4°C° 0.1 mm 3 mps 662 mmHg 78%
    15:00 +4°C° 0.1 mm 3 mps 662 mmHg 77%
    16:00 +5°C° 0.1 mm 2 mps 662 mmHg 79%
    17:00 +4°C° 0.1 mm 2 mps 662 mmHg 80%
    18:00 +4°C° 0.1 mm 2 mps 662 mmHg 82%
    19:00 +3°C° 0 mm 2 mps 662 mmHg 82%
    20:00 +3°C° 0 mm 1 mps 662 mmHg 82%
    21:00 +2°C° 0 mm 1 mps 662 mmHg 82%
    22:00 +2°C° 0 mm 1 mps 662 mmHg 80%
    23:00 +1°C° 0 mm 1 mps 662 mmHg 79%

    24 April, Wednesday

    Time Temperature Precipitation Wind Pressure Humidity
    00:00 +1°C° 0 mm 1 mps 662 mmHg 78%
    01:00 +1°C° 0 mm 1 mps 662 mmHg 78%
    02:00 +1°C° 0 mm 1 mps 663 mmHg 77%
    03:00 +1°C° 0 mm 1 mps 663 mmHg 77%
    04:00 +1°C° 0 mm 1 mps 663 mmHg 78%
    05:00 +2°C° 0 mm 1 mps 663 mmHg 79%
    06:00 +2°C° 0 mm 1 mps 664 mmHg 80%
    07:00 +3°C° 0.1 mm 1 mps 664 mmHg 79%
    08:00 +5°C° 0.1 mm 1 mps 664 mmHg 79%
    09:00 +6°C° 0.1 mm 1 mps 665 mmHg 78%
    10:00 +5°C° 0.1 mm 2 mps 664 mmHg 77%
    11:00 +6°C° 0.1 mm 2 mps 664 mmHg 75%
    12:00 +6°C° 0.1 mm 2 mps 664 mmHg 74%
    13:00 +6°C° 0.3 mm 2 mps 663 mmHg 74%
    14:00 +6°C° 0.3 mm 2 mps 663 mmHg 74%
    15:00 +7°C° 0.3 mm 2 mps 662 mmHg 74%
    16:00 +7°C° 0.1 mm 1 mps 662 mmHg 76%
    17:00 +7°C° 0.1 mm 1 mps 662 mmHg 78%
    18:00 +6°C° 0.1 mm 1 mps 662 mmHg 81%
    19:00 +6°C° 0 mm 1 mps 662 mmHg 82%
    20:00 +5°C° 0 mm 1 mps 662 mmHg 82%
    21:00 +4°C° 0 mm 1 mps 662 mmHg 83%
    22:00 +4°C° 0.1 mm 1 mps 662 mmHg 82%
    23:00 +4°C° 0.1 mm 1 mps 662 mmHg 82%

    25 April, Thursday

    Time Temperature Precipitation Wind Pressure Humidity
    00:00 +4°C° 0.1 mm 1 mps 662 mmHg 81%
    01:00 +4°C° 0.3 mm 1 mps 662 mmHg 83%
    02:00 +4°C° 0.3 mm 1 mps 662 mmHg 85%
    03:00 +4°C° 0.3 mm 1 mps 662 mmHg 86%
    04:00 +4°C° 0.5 mm 1 mps 662 mmHg 87%
    05:00 +4°C° 0.5 mm 1 mps 662 mmHg 88%
    06:00 +3°C° 0.5 mm 0 mps 663 mmHg 88%
    07:00 +5°C° 0.2 mm 1 mps 663 mmHg 85%
    08:00 +6°C° 0.2 mm 1 mps 663 mmHg 81%
    09:00 +7°C° 0.2 mm 1 mps 663 mmHg 77%
    10:00 +7°C° 0.1 mm 1 mps 663 mmHg 75%
    11:00 +7°C° 0.1 mm 2 mps 663 mmHg 74%
    12:00 +8°C° 0.1 mm 2 mps 663 mmHg 72%
    13:00 +8°C° 0.3 mm 2 mps 663 mmHg 71%
    14:00 +8°C° 0.3 mm 2 mps 662 mmHg 70%
    15:00 +9°C° 0.3 mm 2 mps 662 mmHg 70%
    16:00 +8°C° 0.9 mm 2 mps 662 mmHg 74%
    17:00 +8°C° 0.9 mm 1 mps 662 mmHg 78%
    18:00 +8°C° 0.9 mm 1 mps 662 mmHg 83%
    19:00 +7°C° 0.7 mm 1 mps 663 mmHg 85%
    20:00 +6°C° 0.7 mm 1 mps 663 mmHg 87%
    21:00 +6°C° 0.7 mm 1 mps 663 mmHg 89%
    22:00 +5°C° 0.1 mm 1 mps 663 mmHg 89%
    23:00 +5°C° 0.1 mm 1 mps 663 mmHg 89%

    26 April, Friday

    Time Temperature Precipitation Wind Pressure Humidity
    00:00 +4°C° 0.1 mm 1 mps 663 mmHg 89%
    01:00 +4°C° 0 mm 1 mps 663 mmHg 88%
    02:00 +4°C° 0 mm 1 mps 663 mmHg 86%
    03:00 +3°C° 0 mm 1 mps 663 mmHg 85%
    04:00 +4°C° 0 mm 1 mps 663 mmHg 84%
    05:00 +4°C° 0 mm 1 mps 663 mmHg 83%
    06:00 +4°C° 0 mm 1 mps 664 mmHg 81%
    07:00 +5°C° 0 mm 1 mps 664 mmHg 78%
    08:00 +7°C° 0 mm 1 mps 664 mmHg 75%
    09:00 +8°C° 0 mm 1 mps 665 mmHg 72%
    10:00 +7°C° 0.1 mm 2 mps 664 mmHg 71%
    11:00 +8°C° 0.1 mm 2 mps 664 mmHg 69%
    12:00 +8°C° 0.1 mm 2 mps 664 mmHg 68%
    13:00 +9°C° 0.1 mm 2 mps 663 mmHg 67%
    14:00 +9°C° 0.1 mm 2 mps 663 mmHg 67%
    15:00 +9°C° 0.1 mm 3 mps 663 mmHg 66%
    16:00 +9°C° 0.1 mm 2 mps 663 mmHg 70%
    17:00 +8°C° 0.1 mm 2 mps 663 mmHg 74%
    18:00 +7°C° 0.1 mm 2 mps 663 mmHg 79%
    19:00 +7°C° 0 mm 1 mps 663 mmHg 82%
    20:00 +6°C° 0 mm 1 mps 663 mmHg 85%
    21:00 +5°C° 0 mm 1 mps 663 mmHg 88%
    22:00 +5°C° 0 mm 1 mps 663 mmHg 87%
    23:00 +5°C° 0 mm 1 mps 662 mmHg 86%
    Show more